Location: Nebraska Star Party
(42.6000°N, 100.8833°W)
Time: 23:48:24
(UTC-05:00)

Amateur Radio Satellites - All Passes

Search period start: 21 October 2014 23:18
Search period end: 22 October 2014 23:18
Location: Nebraska Star Party, 42.6000°N, 100.8833°W

Satellite Date Start Highest point End Downlink Frequencies (MHz)
Time Altitude Azimuth
FUNcube-1 21 Oct 23:34:10 23:38:41 56° 260° (W) 23:43:11 145.950 - 145.970 MHz USB
SO-50 21 Oct 23:37:47 23:42:39 84° 238° (WSW) 23:47:32 436.795 FM
UOSAT-12 21 Oct 23:40:28 23:43:34 17° 37° (NE) 23:46:38 437.025 FM, 437.400 FM
HO-68 21 Oct 23:45:58 23:49:41 15° 272° (W) 23:53:26 435.675 MHz FM
Oscar 11 21 Oct 23:46:57 23:49:53 18° 268° (W) 23:52:49 145.825 FM, Beacon 2401.500 USB
ZACube-1 22 Oct 00:26:43 00:29:43 17° 268° (W) 00:32:43 437.345 MHz
KITSAT 1 22 Oct 00:28:35 00:35:19 30° 254° (WSW) 00:42:01 435.175 FM
RS-15 22 Oct 00:34:48 00:45:48 79° 305° (NW) 00:56:49 29.354 - 29.394 USB, Beacon 29.352 USB
UOSAT-12 22 Oct 01:19:37 01:24:22 86° 237° (WSW) 01:29:01 437.025 FM, 437.400 FM
SO-50 22 Oct 01:21:47 01:22:26 10° 254° (WSW) 01:23:06 436.795 FM
MaSat-1 22 Oct 01:41:58 01:46:13 82° 296° (WNW) 01:50:05 437.345 MHz
JAS-1B 22 Oct 01:49:58 01:52:46 13° 90° (E) 01:55:42 435.800 - 435.900 CW/SSB
Oscar 19 22 Oct 01:54:18 01:55:25 11° 88° (E) 01:56:33 437.125 CW, 437.150 USB
Oscar 16 22 Oct 02:36:43 02:41:12 30° 96° (E) 02:45:38 437.025 USB, Beacon 2401.1428
RS-15 22 Oct 02:50:57 03:00:11 30° 334° (NNW) 03:09:34 29.354 - 29.394 USB, Beacon 29.352 USB
Uribyol 2 22 Oct 02:51:18 02:54:43 18° 91° (E) 02:58:08 436.500 FM
ITAMSAT 1 22 Oct 02:56:22 02:59:57 18° 92° (E) 03:03:31 435.822 SSB
AO-Echo 22 Oct 02:57:36 03:02:00 26° 94° (E) 03:06:22 ?
Oscar 19 22 Oct 03:30:18 03:35:27 89° 285° (WNW) 03:40:34 437.125 CW, 437.150 USB
JAS-1B 22 Oct 03:37:31 03:44:00 80° 104° (ESE) 03:51:45 435.800 - 435.900 CW/SSB
AO-27 22 Oct 03:40:04 03:45:08 47° 99° (E) 03:50:09 436.795 MHz FM
Sapphire 22 Oct 04:15:13 04:17:40 13° 103° (ESE) 04:20:07 437.095 MHz 1200 baud AX-25 AFSK
Oscar 16 22 Oct 04:15:57 04:20:33 34° 293° (WNW) 04:25:07 437.025 USB, Beacon 2401.1428
Uribyol 2 22 Oct 04:29:27 04:34:35 59° 288° (WNW) 04:39:41 436.500 FM
ITAMSAT 1 22 Oct 04:34:40 04:39:48 57° 289° (WNW) 04:44:53 435.822 SSB
AO-Echo 22 Oct 04:35:54 04:40:52 42° 290° (WNW) 04:45:51 ?
Gurwin Techsat 1B 22 Oct 04:35:56 04:41:18 81° 103° (ESE) 04:46:36 435.225 FM
PCSat 22 Oct 04:36:07 04:40:16 23° 107° (ESE) 04:44:27 145.825 MHz
TMSAT-1 22 Oct 04:49:14 04:54:35 80° 103° (ESE) 04:59:53 436.925 FM
RS-15 22 Oct 05:09:08 05:17:26 23° 9° (N) 05:25:53 29.354 - 29.394 USB, Beacon 29.352 USB
Oscar 19 22 Oct 05:11:59 05:14:01 12° 302° (WNW) 05:16:02 437.125 CW, 437.150 USB
OPAL 22 Oct 05:16:22 05:21:07 39° 66° (ENE) 05:25:51 ?
AO-27 22 Oct 05:20:15 05:24:20 24° 297° (WNW) 05:28:23 436.795 MHz FM
AO-7 22 Oct 05:26:42 05:34:27 41° 99° (E) 05:42:09 29.400 - 29.500 MHz
JAS-1B 22 Oct 05:29:48 05:34:10 20° 300° (WNW) 05:38:58 435.800 - 435.900 CW/SSB
Sapphire 22 Oct 05:54:53 06:00:18 85° 300° (WNW) 06:05:46 437.095 MHz 1200 baud AX-25 AFSK
Gurwin Techsat 1B 22 Oct 06:17:41 06:20:34 15° 301° (WNW) 06:23:26 435.225 FM
Uosat F 22 Oct 06:17:50 06:22:55 82° 104° (ESE) 06:27:58 435.120 FM
PCSat 22 Oct 06:18:01 06:23:18 53° 305° (NW) 06:28:38 145.825 MHz
Hamsat 22 Oct 06:18:44 06:19:19 10° 89° (E) 06:19:55 145.90 MHz
TMSAT-1 22 Oct 06:30:54 06:33:49 15° 301° (WNW) 06:36:43 436.925 FM
JAS-2 22 Oct 06:55:37 07:03:12 56° 99° (E) 07:10:51 435.800 - 435.900 CW/SSB, 435.910 FM
OPAL 22 Oct 06:55:43 07:00:04 27° 263° (W) 07:04:24 ?
STRAND 1 22 Oct 06:56:03 07:00:37 34° 67° (ENE) 07:05:13 ?
AO-7 22 Oct 07:19:27 07:27:18 48° 298° (WNW) 07:35:09 29.400 - 29.500 MHz
RS-15 22 Oct 07:22:59 07:33:34 46° 42° (NE) 07:44:30 29.354 - 29.394 USB, Beacon 29.352 USB
Sapphire 22 Oct 07:41:06 07:44:33 17° 320° (NW) 07:48:02 437.095 MHz 1200 baud AX-25 AFSK
Hamsat 22 Oct 07:51:33 07:55:43 68° 285° (WNW) 07:59:53 145.90 MHz
Uosat F 22 Oct 07:58:31 08:01:01 14° 301° (WNW) 08:03:31 435.120 FM
SO-67 22 Oct 08:01:19 08:03:40 17° 93° (E) 08:06:00 435.3500 MHz FM
PCSat 22 Oct 08:06:05 08:08:01 12° 327° (NNW) 08:09:57 145.825 MHz
STRAND 1 22 Oct 08:35:18 08:39:47 31° 264° (W) 08:44:19 ?
JAS-2 22 Oct 08:41:07 08:47:51 35° 296° (WNW) 08:54:44 435.800 - 435.900 CW/SSB, 435.910 FM
Saudisat 1A 22 Oct 08:53:07 08:57:07 36° 116° (ESE) 09:01:08 436.775 MHz
AO-7 22 Oct 09:15:32 09:18:04 12° 320° (NW) 09:20:36 29.400 - 29.500 MHz
HO-68 22 Oct 09:22:28 09:27:00 18° 90° (E) 09:31:31 435.675 MHz FM
SO-67 22 Oct 09:33:43 09:36:40 27° 289° (WNW) 09:39:37 435.3500 MHz FM
RS-15 22 Oct 09:35:29 09:46:23 61° 245° (WSW) 09:57:46 29.354 - 29.394 USB, Beacon 29.352 USB
MaSat-1 22 Oct 09:53:55 09:55:03 12° 50° (NE) 09:56:09 437.345 MHz
Saudisat 1A 22 Oct 10:32:55 10:36:44 28° 314° (NW) 10:40:34 436.775 MHz
UKube-1 22 Oct 10:48:21 10:52:08 28° 96° (E) 10:55:53 145.840 MHz, 145.915 MHz
HO-68 22 Oct 11:08:18 11:15:32 86° 288° (WNW) 11:22:44 435.675 MHz FM
FUNcube-1 22 Oct 11:23:12 11:26:47 26° 95° (E) 11:30:18 145.950 - 145.970 MHz USB
MaSat-1 22 Oct 11:28:42 11:30:49 22° 252° (WSW) 11:32:49 437.345 MHz
Oscar 11 22 Oct 11:32:04 11:36:24 80° 102° (ESE) 11:40:42 145.825 FM, Beacon 2401.500 USB
RS-15 22 Oct 11:52:56 11:56:21 12° 266° (W) 11:59:48 29.354 - 29.394 USB, Beacon 29.352 USB
ZACube-1 22 Oct 12:13:31 12:17:50 85° 284° (WNW) 12:22:02 437.345 MHz
UKube-1 22 Oct 12:24:32 12:28:15 28° 293° (WNW) 12:31:57 145.840 MHz, 145.915 MHz
HO-68 22 Oct 12:57:37 13:02:14 19° 307° (NW) 13:06:51 435.675 MHz FM
FUNcube-1 22 Oct 12:59:29 13:03:08 28° 292° (WNW) 13:06:43 145.950 - 145.970 MHz USB
Sapphire 22 Oct 12:59:55 13:03:29 17° 40° (NE) 13:07:03 437.095 MHz 1200 baud AX-25 AFSK
KITSAT 1 22 Oct 13:01:45 13:09:03 40° 109° (ESE) 13:16:23 435.175 FM
Oscar 19 22 Oct 13:10:37 13:14:11 19° 62° (ENE) 13:17:45 437.125 CW, 437.150 USB
Oscar 11 22 Oct 13:10:58 13:11:56 11° 300° (WNW) 13:12:53 145.825 FM, Beacon 2401.500 USB
PCSat 22 Oct 13:22:19 13:26:47 25° 46° (NE) 13:31:13 145.825 MHz
AO-27 22 Oct 13:23:59 13:25:26 11° 56° (NE) 13:26:52 436.795 MHz FM
ISS 22 Oct 13:46:56 13:48:58 15° 132° (SE) 13:51:00 145.800 FM
Oscar 10/S400 22 Oct 13:50:16 14:07:16 28° 150° (SSE) 14:24:13 145.825 - 145.975 CW/USB, Beacon 145.810 USB
SO-50 22 Oct 13:54:04 13:57:48 26° 113° (ESE) 14:01:37 436.795 FM
Oscar 16 22 Oct 13:54:13 13:59:08 47° 70° (ENE) 14:04:05 437.025 USB, Beacon 2401.1428
Uribyol 2 22 Oct 14:09:31 14:13:58 30° 66° (ENE) 14:18:27 436.500 FM
AO-Echo 22 Oct 14:11:21 14:15:41 33° 67° (ENE) 14:20:10 ?
ITAMSAT 1 22 Oct 14:14:47 14:19:17 31° 66° (ENE) 14:23:50 435.822 SSB
Gurwin Techsat 1B 22 Oct 14:20:03 14:23:41 19° 61° (ENE) 14:27:20 435.225 FM
JAS-1B 22 Oct 14:24:53 14:30:55 70° 73° (ENE) 14:36:34 435.800 - 435.900 CW/SSB
TMSAT-1 22 Oct 14:33:07 14:36:41 19° 61° (ENE) 14:40:16 436.925 FM
AO-7 22 Oct 14:39:17 14:43:13 14° 44° (NE) 14:47:10 29.400 - 29.500 MHz
Sapphire 22 Oct 14:42:15 14:47:43 88° 60° (ENE) 14:53:09 437.095 MHz 1200 baud AX-25 AFSK
Oscar 19 22 Oct 14:48:00 14:53:04 58° 259° (W) 14:58:10 437.125 CW, 437.150 USB
KITSAT 1 22 Oct 14:56:25 15:04:15 52° 310° (NW) 15:12:08 435.175 FM
AO-27 22 Oct 14:58:51 15:04:03 77° 74° (ENE) 15:09:17 436.795 MHz FM
PCSat 22 Oct 15:05:14 15:10:33 57° 245° (WSW) 15:15:49 145.825 MHz
ISS 22 Oct 15:21:59 15:25:18 69° 328° (NNW) 15:28:39 145.800 FM
UOSAT-12 22 Oct 15:32:07 15:35:50 24° 112° (ESE) 15:39:36 437.025 FM, 437.400 FM
SO-50 22 Oct 15:33:57 15:38:10 38° 312° (NW) 15:42:32 436.795 FM
Oscar 16 22 Oct 15:34:46 15:38:43 22° 267° (W) 15:42:40 437.025 USB, Beacon 2401.1428
Uribyol 2 22 Oct 15:48:31 15:53:19 37° 263° (W) 15:58:09 436.500 FM
AO-Echo 22 Oct 15:50:17 15:54:27 29° 265° (W) 15:58:47 ?
ITAMSAT 1 22 Oct 15:53:58 15:58:41 35° 263° (W) 16:03:27 435.822 SSB
Uosat F 22 Oct 15:55:35 15:58:36 16° 60° (ENE) 16:01:37 435.120 FM
Gurwin Techsat 1B 22 Oct 15:57:55 16:03:09 62° 259° (W) 16:08:27 435.225 FM
TMSAT-1 22 Oct 16:10:51 16:16:05 63° 259° (WSW) 16:21:23 436.925 FM
JAS-1B 22 Oct 16:18:52 16:22:10 15° 269° (W) 16:25:22 435.800 - 435.900 CW/SSB
AO-7 22 Oct 16:26:15 16:34:17 59° 65° (ENE) 16:42:21 29.400 - 29.500 MHz
Sapphire 22 Oct 16:28:03 16:30:20 13° 258° (WSW) 16:32:36 437.095 MHz 1200 baud AX-25 AFSK
AO-27 22 Oct 16:41:43 16:44:08 13° 271° (W) 16:46:34 436.795 MHz FM
KITSAT 1 22 Oct 16:56:34 17:01:47 18° 335° (NNW) 17:07:01 435.175 FM
ISS 22 Oct 16:59:51 17:02:28 21° 347° (NNW) 17:05:04 145.800 FM
JAS-2 22 Oct 17:10:09 17:14:47 24° 59° (ENE) 17:19:52 435.800 - 435.900 CW/SSB, 435.910 FM
UOSAT-12 22 Oct 17:11:17 17:15:44 43° 310° (NW) 17:20:15 437.025 FM, 437.400 FM
Saudisat 1A 22 Oct 17:18:50 17:22:58 37° 49° (NE) 17:27:05 436.775 MHz
Uosat F 22 Oct 17:31:49 17:36:49 68° 258° (WSW) 17:41:51 435.120 FM
AO-7 22 Oct 18:20:15 18:27:26 33° 264° (W) 18:34:41 29.400 - 29.500 MHz
ISS 22 Oct 18:37:36 18:40:02 18° 8° (N) 18:42:28 145.800 FM
Hamsat 22 Oct 18:45:10 18:49:23 89° 261° (W) 18:53:37 145.90 MHz
JAS-2 22 Oct 18:53:31 18:59:13 60° 260° (W) 19:05:46 435.800 - 435.900 CW/SSB, 435.910 FM
KITSAT 1 22 Oct 18:57:52 19:01:15 13° 7° (N) 19:04:36 435.175 FM
Saudisat 1A 22 Oct 18:58:43 19:02:22 26° 246° (WSW) 19:06:01 436.775 MHz
OPAL 22 Oct 19:03:54 19:08:53 73° 105° (ESE) 19:13:49 ?
HO-68 22 Oct 19:53:25 19:57:33 17° 51° (NE) 20:01:41 435.675 MHz FM
SO-67 22 Oct 20:06:12 20:09:38 78° 259° (W) 20:13:05 435.3500 MHz FM
ISS 22 Oct 20:14:07 20:17:21 45° 27° (NNE) 20:20:34 145.800 FM
STRAND 1 22 Oct 20:44:19 20:49:31 86° 104° (ESE) 20:54:40 ?
OPAL 22 Oct 20:44:21 20:47:10 15° 303° (WNW) 20:49:57 ?
KITSAT 1 22 Oct 20:53:30 21:00:06 26° 36° (NE) 21:06:40 435.175 FM
HO-68 22 Oct 21:36:59 21:44:07 77° 71° (ENE) 21:51:18 435.675 MHz FM
UKube-1 22 Oct 21:44:35 21:48:16 28° 67° (ENE) 21:51:58 145.840 MHz, 145.915 MHz
ISS 22 Oct 21:51:06 21:53:54 25° 224° (SW) 21:56:41 145.800 FM
RS-15 22 Oct 21:51:57 21:59:10 20° 100° (E) 22:06:18 29.354 - 29.394 USB, Beacon 29.352 USB
FUNcube-1 22 Oct 22:20:04 22:23:50 26° 67° (ENE) 22:27:34 145.950 - 145.970 MHz USB
SO-50 22 Oct 22:24:10 22:28:34 34° 47° (NE) 22:33:00 436.795 FM
STRAND 1 22 Oct 22:25:31 22:27:58 14° 302° (WNW) 22:30:25 ?
Oscar 11 22 Oct 22:27:30 22:31:48 68° 75° (ENE) 22:36:07 145.825 FM, Beacon 2401.500 USB
KITSAT 1 22 Oct 22:48:30 22:56:38 88° 59° (ENE) 23:04:43 435.175 FM
